Akron Canton, OH

11:36 PM EDT on June 22, 2017 (GMT -0400)
Akron-Canton Regional

Weather History for KCAK - April, 2013

Change the Weather History Date:

Saturday, April 20, 2013

  Actual Average Record
Temperature  
Mean Temperature 40 °F 51 °F  
Max Temperature 46 °F 62 °F 82 °F (1985)
Min Temperature 33 °F 40 °F 22 °F (1904)
Degree Days  
Heating Degree Days 25 14  
Month to date heating degree days 310 354  
Since 1 July heating degree days 5514 5749  
Cooling Degree Days 0 0  
Month to date cooling degree days 7 0  
Year to date cooling degree days 7 0  
Moisture  
Dew Point 26 °F    
Average Humidity 59    
Maximum Humidity 76    
Minimum Humidity 41    
Precipitation  
Precipitation 0.03 in 0.12 in 1.37 in (1990)
Month to date precipitation 3.20 2.40  
Year to date precipitation 9.45 10.30  
Snow  
Snow 0.30 in 0.10 in - ()
Month to date snowfall 0.3 2.5  
Since 1 July snowfall 47.2 47.2  
Snow Depth 0.00 in    
Sea Level Pressure  
Sea Level Pressure 30.12 in    
Wind  
Wind Speed 13 mph (West)    
Max Wind Speed 26 mph    
Max Gust Speed 33 mph    
Visibility 8 miles    
Events Snow    
T = Trace of Precipitation, MM = Missing Value Source: NWS Daily Summary

Daily Weather History Graph

Daily Weather History Graph

Search for Another Location

Airport or City:

Trip Planner

Search our weather history database for the weather conditions in past years. The results will help you decide how hot, cold, wet, or windy it might be!

Date:

Astronomy

Apr. 20, 2013 Rise Set
Actual Time 6:38 AM EDT 8:11 PM EDT
Civil Twilight 6:10 AM EDT 8:39 PM EDT
Nautical Twilight 5:35 AM EDT 9:14 PM EDT
Astronomical Twilight 4:58 AM EDT 9:52 PM EDT
Moon 2:51 PM EDT (4/20) 3:29 AM EDT (4/20)
Length of Visible Light 14h 29m
Length of Day
13h 32m
Waxing Gibbous, 71% of the Moon is Illuminated
Apr 20
Waxing Gibbous
Apr 25
Full
May 2
Last Quarter
May 9
New
May 18
First Quarter

Hourly Weather History & Observations

Time (EDT) Temp. Windchill Dew Point Humidity Pressure Visibility Wind Dir Wind Speed Gust Speed Precip Events Conditions
12:51 AM 39.0 °F 30.6 °F 28.0 °F 65% 29.88 in 10.0 mi WSW 15.0 mph 28.8 mph 0.00 in   Overcast
1:51 AM 39.0 °F 30.6 °F 28.0 °F 65% 29.90 in 10.0 mi WSW 15.0 mph 23.0 mph 0.00 in   Overcast
2:51 AM 37.9 °F 30.0 °F 30.0 °F 73% 29.90 in 10.0 mi WSW 12.7 mph - 0.01 in   Overcast
3:51 AM 36.0 °F 26.3 °F 28.9 °F 76% 29.92 in 10.0 mi WSW 16.1 mph 26.5 mph N/A   Mostly Cloudy
4:51 AM 35.1 °F 25.9 °F 28.9 °F 78% 29.94 in 10.0 mi WSW 13.8 mph 21.9 mph N/A   Mostly Cloudy
5:51 AM 35.1 °F 27.9 °F 28.9 °F 78% 29.95 in 10.0 mi WSW 9.2 mph - N/A   Mostly Cloudy
6:43 AM 35.6 °F 25.2 °F 30.2 °F 81% 29.94 in 2.5 mi West 18.4 mph 24.2 mph 0.01 in Snow Light Snow
6:51 AM 35.1 °F 24.5 °F 30.0 °F 82% 29.98 in 2.5 mi West 18.4 mph 26.5 mph 0.01 in Snow Light Snow
6:58 AM 33.8 °F 23.9 °F 30.2 °F 87% 29.96 in 3.0 mi West 15.0 mph 26.5 mph 0.01 in Snow Light Snow
7:51 AM 36.0 °F 26.0 °F 28.9 °F 76% 30.01 in 3.0 mi West 17.3 mph 23.0 mph 0.01 in Snow Light Snow
8:51 AM 37.0 °F 26.4 °F 27.0 °F 67% 30.05 in 8.0 mi West 20.7 mph 28.8 mph 0.00 in Snow Light Snow
9:51 AM 39.0 °F 28.5 °F 27.0 °F 62% 30.07 in 9.0 mi WNW 23.0 mph 28.8 mph 0.00 in   Unknown
9:58 AM 39.2 °F 29.6 °F 26.6 °F 61% 30.05 in 8.0 mi West 19.6 mph 29.9 mph 0.00 in   Unknown
10:28 AM 37.4 °F 27.2 °F 24.8 °F 60% 30.07 in 6.0 mi West 19.6 mph 24.2 mph 0.00 in Snow Light Snow
10:51 AM 37.0 °F 27.0 °F 28.9 °F 73% 30.12 in 3.0 mi West 18.4 mph 25.3 mph 0.00 in Snow Light Snow
11:51 AM 39.9 °F 30.8 °F 27.0 °F 60% 30.15 in 9.0 mi West 18.4 mph 28.8 mph 0.00 in   Unknown
12:51 PM 41.0 °F 33.1 °F 25.0 °F 53% 30.17 in 9.0 mi WNW 15.0 mph 28.8 mph 0.00 in   Unknown
1:51 PM 42.1 °F 32.6 °F 25.0 °F 51% 30.18 in 9.0 mi WNW 23.0 mph 27.6 mph 0.00 in   Unknown
2:51 PM 43.0 °F 35.7 °F 25.0 °F 49% 30.20 in 9.0 mi West 15.0 mph 27.6 mph 0.00 in   Unknown
3:51 PM 44.1 °F 35.9 °F 24.1 °F 45% 30.22 in 10.0 mi West 19.6 mph 25.3 mph 0.00 in   Mostly Cloudy
4:51 PM 44.1 °F 37.4 °F 23.0 °F 43% 30.25 in 10.0 mi WNW 13.8 mph 23.0 mph N/A   Mostly Cloudy
5:51 PM 43.0 °F 36.0 °F 21.9 °F 43% 30.27 in 10.0 mi WNW 13.8 mph 21.9 mph N/A   Mostly Cloudy
6:51 PM 42.1 °F 36.1 °F 23.0 °F 47% 30.30 in 10.0 mi NW 10.4 mph 18.4 mph N/A   Mostly Cloudy
7:51 PM 39.9 °F 33.4 °F 24.1 °F 53% 30.32 in 10.0 mi NNW 10.4 mph - N/A   Mostly Cloudy
8:51 PM 37.9 °F 32.1 °F 24.1 °F 57% 30.35 in 10.0 mi North 8.1 mph - N/A   Mostly Cloudy
9:51 PM 34.0 °F 28.8 °F 24.1 °F 67% 30.39 in 10.0 mi NNE 5.8 mph - N/A   Scattered Clouds
10:51 PM 34.0 °F 29.8 °F 24.1 °F 67% 30.41 in 10.0 mi North 4.6 mph - N/A   Mostly Cloudy
11:51 PM 35.1 °F - 24.1 °F 64% 30.43 in 10.0 mi Calm Calm - N/A   Partly Cloudy